Temperature
20 19 19 19 19 19 19 19 19 18 18 18 18 18 18 18 18 17 17 17 17 16 16 16 15 15 15 15 15 15 15 16 16 16 16 16 16 16 16 16 16 16 16
19 19 19 19 19 19 19 19 19 18 18 18 18 18 18 18 17 17 17 17 16 16 16 15 15 15 15 15 15 15 15 15 16 16 16 16 16 16 16 16 16 16 16
19 19 19 19 19 19 19 19 19 18 18 18 18 18 18 17 17 17 17 16 16 16 16 15 15 15 15 15 15 15 15 15 15 16 16 16 16 16 16 16 16 16 16
19 19 19 19 19 19 19 19 18 18 18 18 18 18 18 17 17 17 17 16 16 16 16 15 15 15 15 15 15 15 15 15 15 15 16 16 16 16 16 16 16 16 16
20 20 19 19 19 19 19 18 18 18 18 18 18 18 18 18 17 17 17 16 16 16 16 15 15 15 15 15 15 15 15 15 15 15 15 15 15 16 16 16 16 16 16
20 20 19 19 19 18 18 18 18 18 18 18 18 18 18 17 17 17 17 16 16 16 16 15 15 15 15 15 15 15 15 15 15 15 15 15 15 15 16 15 15 16 16
20 20 19 19 19 18 18 18 18 18 18 18 18 18 17 17 17 17 17 17 16 16 16 16 15 15 15 15 15 15 15 15 15 15 15 15 15 15 15 15 15 15 15
20 20 20 19 19 18 18 18 18 18 18 18 18 18 17 17 17 17 17 17 17 17 16 16 16 15 15 15 15 15 15 14 14 15 15 15 15 15 15 15 15 15 15
21 20 20 20 19 19 19 18 18 18 18 18 18 18 18 17 17 17 17 17 17 17 16 16 16 15 15 15 15 15 15 14 14 14 14 15 14 14 14 14 15 15 15
21 21 20 20 20 19 19 19 19 19 18 18 18 18 18 18 18 17 17 17 17 17 16 16 16 16 15 15 15 15 15 14 14 14 14 14 14 14 14 14 14 14 14
21 21 21 20 20 19 19 19 19 19 18 18 18 18 18 18 17 17 17 17 17 17 17 16 16 16 16 16 15 15 15 15 15 15 15 15 14 14 14 14 14 14 14
22 21 21 20 20 19 19 19 19 19 19 19 18 18 18 18 18 18 17 17 17 17 17 17 16 16 16 16 16 16 16 15 15 15 15 15 15 15 14 14 14 14 14
21 21 21 20 20 20 19 19 19 19 19 19 18 18 18 18 18 18 18 17 17 17 17 17 16 16 16 16 16 16 16 16 16 15 15 15 15 15 15 15 14 14 14
21 21 20 20 20 20 20 19 19 19 19 19 19 19 18 18 18 18 18 17 17 17 17 17 17 16 16 16 16 16 16 16 16 15 15 15 15 15 15 15 15 14 14
20 20 20 20 20 20 19 19 19 19 19 18 18 18 18 18 18 18 18 17 17 17 17 17 16 16 16 16 16 16 16 16 15 15 15 15 15 15 15 15 14 14 14
19 19 19 20 19 19 19 19 19 19 18 18 18 18 18 17 17 17 17 17 17 16 16 16 16 16 16 16 15 15 15 15 15 15 15 15 15 15 14 14 14 14 14
18 18 18 18 19 19 19 18 18 18 18 18 17 17 17 17 17 17 16 16 16 16 16 16 15 15 15 15 15 15 15 15 15 15 15 15 15 14 14 14 14 14 14
17 17 17 17 18 18 18 18 17 17 17 17 17 17 17 17 17 16 16 16 16 16 15 15 15 15 15 15 15 15 14 14 14 14 14 14 14 14 14 14 14 14 14
16 16 16 16 17 17 17 17 16 16 16 16 16 16 16 16 16 16 16 15 15 15 15 15 14 14 14 14 14 14 14 14 14 14 14 14 14 13 13 13 13 13 13
15 15 15 16 16 15 16 16 16 15 15 15 15 15 15 15 15 15 15 14 14 14 14 14 14 13 13 13 13 13 13 13 13 13 13 13 13 13 12 12 12 12 13
15 15 15 15 15 15 15 15 15 14 14 14 14 14 14 14 14 14 13 13 13 13 13 13 13 13 13 13 13 12 12 12 12 12 12 12 12 12 12 11 11 11 11
14 14 14 14 13 14 14 14 13 13 13 13 13 13 13 13 13 13 13 13 13 12 12 12 12 12 12 12 12 12 11 11 11 11 11 11 11 11 11 11 10 10 10
13 13 13 13 13 13 13 13 12 12 13 13 13 12 12 12 12 12 12 12 12 12 11 11 11 11 11 11 11 11 11 10 10 10 10 10 10 10 10 10 10 10 10
13 13 13 12 12 12 12 12 12 12 12 12 12 12 12 12 12 12 12 11 11 11 11 11 10 10 10 10 10 10 10 10 10 9 9 9 9 9 9 9 9 9 8
12 12 12 12 11 11 11 11 11 11 12 11 11 11 11 11 11 11 11 11 11 10 10 10 10 10 9 9 9 9 9 9 8 8 8 8 8 8 8 8 8 8 8
12 12 12 11 11 11 11 11 11 11 11 11 11 11 11 11 11 11 10 10 10 10 10 9 9 9 8 8 8 8 8 8 7 7 7 7 7 7 6 6 6 7 7
Wind_Speed
8 9 11 11 11 11 11 11 11 9 9 7 7 7 6 5 5 5 9 9 9 8 7 4 4 4 4 3 3 2 3 3 2 3 3 4 3 2 0 1 2 2 4
9 10 11 11 12 12 12 12 11 10 9 7 6 6 6 5 5 4 6 9 9 8 7 5 4 4 4 4 4 3 2 2 2 3 3 3 4 4 3 1 1 2 2
14 14 13 12 12 12 13 13 12 11 10 9 6 6 5 4 3 4 4 5 9 8 8 7 5 4 4 3 3 3 4 2 3 2 3 4 3 2 3 2 1 1 1
12 12 13 13 13 13 12 11 11 11 10 9 9 10 7 6 6 5 5 5 7 8 9 8 7 5 4 4 3 4 3 4 2 2 2 2 3 3 0 3 3 2 0
13 14 14 14 13 12 12 11 11 10 10 9 11 10 7 5 4 5 6 5 4 6 8 8 6 5 4 4 4 4 4 3 3 2 2 3 3 2 3 0 3 3 3
12 12 12 10 9 10 11 11 12 10 10 10 10 10 9 8 7 6 7 5 4 4 5 7 6 5 4 5 4 4 5 3 3 2 2 2 2 1 2 2 1 2 3
12 11 11 11 11 12 12 12 13 11 10 10 10 10 10 10 10 9 8 7 5 4 6 6 6 5 5 5 4 4 4 3 3 3 2 2 2 2 3 3 1 1 3
12 14 14 14 13 14 13 13 13 12 12 11 10 9 9 7 7 8 8 8 7 7 7 7 7 7 7 6 5 3 3 3 3 3 2 2 1 2 2 3 3 2 3
14 14 14 14 14 14 14 14 14 12 12 11 10 9 9 8 8 8 8 7 7 7 8 8 8 7 6 6 6 4 4 4 3 3 2 2 1 1 1 2 4 4 1
12 13 13 13 13 13 12 12 12 12 11 11 10 10 9 8 8 7 8 8 8 7 8 9 9 9 7 7 6 4 4 5 4 3 3 2 2 1 1 1 2 3 4
10 11 12 12 12 11 11 12 12 11 11 11 10 9 8 8 8 8 8 8 7 8 10 10 10 10 9 8 7 6 6 6 5 5 5 6 4 3 2 1 2 2 3
9 10 11 11 11 11 11 12 12 12 11 11 10 9 8 8 8 8 8 8 8 9 10 10 10 10 10 9 9 9 8 7 7 7 6 7 5 5 4 3 3 3 3
6 7 8 9 11 11 11 11 12 12 11 10 10 10 9 9 10 9 8 8 8 8 9 9 10 10 9 9 9 9 9 8 8 8 8 8 7 6 5 5 5 4 4
6 6 6 6 7 8 9 9 10 10 10 10 10 10 10 10 10 9 8 8 8 9 9 9 10 9 9 9 9 9 9 9 8 8 8 8 8 9 8 7 7 6 5
5 6 6 6 6 6 6 7 7 7 7 7 8 9 8 7 6 6 7 7 8 10 9 9 8 8 7 8 8 8 9 9 8 8 8 9 11 12 10 8 8 7 6
6 6 5 5 5 5 5 5 5 5 5 5 4 3 3 4 4 4 5 5 6 7 7 8 8 7 8 9 11 9 7 8 8 8 8 8 9 12 14 15 13 11 9
8 7 6 5 5 5 5 5 6 7 8 6 4 3 4 3 3 3 3 5 5 5 5 6 6 7 7 9 11 12 8 7 8 8 7 8 8 8 7 10 13 13 15
10 9 8 8 7 6 7 7 7 8 8 6 4 4 3 3 2 2 3 4 4 5 5 4 4 4 5 6 8 8 6 5 6 6 6 6 7 5 5 6 7 8 9
12 11 10 10 10 10 9 10 9 8 8 6 5 4 4 3 3 2 1 1 2 3 3 3 3 3 2 2 3 4 2 3 4 4 4 4 4 5 4 4 6 8 9
12 12 11 12 13 10 10 13 11 10 8 6 5 4 5 5 4 3 2 2 2 3 3 2 2 2 2 3 1 2 1 2 3 3 2 2 3 5 5 4 6 9 10
12 12 13 12 10 9 11 12 11 9 6 6 7 6 6 5 5 4 4 4 5 5 5 5 5 4 3 4 4 3 1 1 2 3 3 3 6 8 8 7 7 11 10
12 12 13 12 9 9 11 12 9 6 6 7 8 8 7 6 7 7 6 6 6 6 5 5 5 4 4 4 4 4 2 0 1 3 3 4 8 9 10 8 10 13 10
11 10 11 11 9 9 10 11 7 6 7 8 7 6 6 6 6 6 6 5 5 5 4 4 4 3 3 4 7 7 6 4 1 3 6 9 10 10 8 10 12 10 5
10 9 11 11 9 8 9 8 7 7 8 8 7 6 6 6 5 4 4 4 3 3 3 3 2 2 3 4 4 4 4 5 4 4 6 9 9 7 7 8 7 4 4
8 8 9 10 8 8 8 8 7 8 9 8 7 7 6 6 5 4 4 3 2 3 4 3 2 3 3 4 5 4 4 4 4 4 3 3 4 5 5 5 5 5 5
8 8 8 8 7 7 7 7 7 8 8 7 6 5 5 5 5 5 6 10 9 11 10 8 6 4 4 6 8 8 8 7 6 3 3 4 4 5 5 6 6 5 5
Wind_Direction
175 168 168 170 168 162 164 162 161 159 146 141 143 143 148 153 149 152 151 144 137 127 117 110 97 100 101 100 86 68 49 28 37 62 27 1 1 10 12 106 115 150 185
168 176 174 175 177 169 168 163 164 163 157 156 155 150 150 158 159 153 155 153 144 138 128 122 121 116 105 81 69 69 67 22 45 104 89 33 360 352 355 355 125 123 137
177 180 180 183 178 175 174 173 170 168 165 158 140 128 113 108 118 149 166 166 152 145 137 137 129 121 120 114 97 87 91 60 16 74 134 136 197 301 332 332 358 122 125
177 179 183 183 183 184 176 171 172 168 167 159 153 154 157 165 183 176 174 174 164 155 150 146 136 127 130 134 124 99 101 102 50 7 33 128 153 144 336 332 337 335 248
180 183 185 185 184 181 177 174 172 171 170 167 163 162 164 170 169 162 163 172 172 168 163 156 143 136 138 141 126 112 104 107 110 73 42 50 55 80 127 255 323 334 310
183 184 183 177 179 180 179 175 172 177 176 172 168 169 173 171 164 167 172 179 180 179 177 167 157 152 148 153 149 135 125 121 115 105 94 106 102 104 125 147 266 291 298
182 181 178 179 179 181 183 180 177 182 181 176 176 179 180 175 176 176 179 180 181 190 194 174 166 161 167 168 158 144 141 142 138 140 133 132 148 162 147 134 151 329 311
186 184 185 184 185 185 183 182 183 186 184 183 183 182 179 177 179 179 179 188 191 194 188 181 177 175 174 174 164 157 168 163 166 162 152 147 152 151 158 153 138 64 343
189 187 186 186 187 186 185 185 185 185 187 186 181 185 184 179 182 184 184 191 196 197 189 184 181 179 176 175 167 173 186 179 189 190 183 191 209 145 149 151 150 145 153
189 186 186 189 188 187 185 183 183 186 187 188 188 193 194 190 188 188 194 196 199 195 183 184 183 183 181 176 173 178 187 183 196 195 191 205 215 202 144 142 149 152 160
185 187 188 187 184 183 183 185 187 187 188 191 193 196 196 197 194 196 201 198 195 190 186 185 183 185 188 184 182 191 190 196 207 207 204 220 217 213 215 181 161 163 159
182 184 185 181 180 183 185 188 188 191 193 193 194 199 199 198 200 205 204 195 193 190 186 183 185 191 193 191 191 199 201 202 211 217 213 224 221 220 223 213 213 208 193
173 172 173 181 184 186 188 190 191 193 193 190 195 200 202 202 208 210 204 196 193 190 188 184 190 196 196 197 201 203 206 208 213 215 215 222 213 221 223 220 221 225 220
162 162 161 172 177 180 181 188 194 194 192 192 196 203 207 207 208 207 201 197 193 190 191 192 194 195 196 199 206 208 212 216 219 219 218 219 212 217 219 223 224 223 227
134 144 153 162 161 166 176 184 187 185 187 189 197 206 207 204 203 203 202 202 201 200 194 192 195 197 200 209 208 211 216 218 227 230 228 227 223 221 218 221 220 218 225
115 113 115 133 143 146 148 143 145 150 149 162 184 185 166 170 184 202 206 203 209 205 192 196 197 203 216 217 211 207 218 217 222 231 238 242 239 237 233 233 227 216 220
102 98 95 102 111 120 122 122 126 118 115 117 120 122 132 160 188 208 216 215 210 198 187 194 198 209 223 222 217 215 216 223 227 228 233 247 249 242 245 249 248 240 234
94 92 90 89 86 87 94 96 93 99 104 102 100 114 123 144 158 183 220 219 207 191 184 188 198 209 229 229 230 229 226 233 238 236 233 237 253 258 253 258 262 259 254
84 80 78 81 79 76 79 83 79 83 89 89 83 87 104 111 115 119 133 193 180 169 167 171 193 211 252 256 250 231 226 247 260 264 256 245 253 277 274 266 271 275 274
82 81 78 77 76 73 81 82 76 75 74 75 79 74 82 89 89 90 99 88 105 123 118 115 108 119 96 53 61 168 178 268 287 296 292 261 271 292 294 270 267 274 278
85 84 81 77 72 72 82 81 75 71 69 70 67 62 67 74 74 67 58 63 70 74 80 79 72 72 69 54 66 106 128 278 301 307 301 299 310 303 300 283 259 262 273
87 84 84 76 65 65 78 78 67 58 60 65 64 58 55 62 72 74 61 64 76 75 74 75 62 48 41 42 44 57 70 27 303 296 298 300 309 305 300 289 273 275 279
94 88 88 82 67 59 71 75 60 54 58 57 55 55 57 56 61 73 75 69 72 80 76 74 70 50 32 28 31 34 28 19 341 299 305 309 308 307 301 293 292 293 280
98 94 91 85 74 64 65 67 57 56 60 55 46 44 52 51 51 60 74 81 84 91 85 80 75 46 28 15 5 2 360 359 349 330 319 316 314 312 303 306 310 304 286
98 95 95 92 84 73 65 61 62 63 59 51 44 42 45 49 45 41 45 59 64 107 111 96 92 75 36 345 354 6 352 337 324 331 338 345 344 340 333 325 318 314 314
102 97 95 93 85 77 67 56 56 64 62 50 41 39 38 40 45 51 50 49 61 68 76 81 84 64 40 11 13 10 2 355 356 22 351 334 328 323 319 318 316 313 311
Height
1497 1499 1501 1504 1506 1509 1513 1516 1520 1524 1527 1530 1533 1535 1538 1541 1543 1544 1545 1545 1546 1546 1547 1548 1548 1549 1550 1551 1551 1552 1553 1555 1556 1557 1558 1559 1559 1560 1561 1561 1561 1562 1562
1496 1498 1500 1501 1504 1506 1511 1514 1518 1523 1525 1529 1532 1534 1537 1540 1542 1543 1544 1545 1545 1546 1547 1547 1548 1549 1549 1550 1551 1552 1553 1554 1555 1556 1557 1558 1560 1560 1560 1561 1561 1561 1561
1493 1496 1498 1500 1502 1505 1509 1513 1517 1520 1524 1527 1530 1534 1536 1538 1540 1542 1543 1544 1545 1546 1546 1547 1548 1548 1549 1550 1551 1552 1553 1554 1555 1556 1557 1558 1558 1559 1560 1560 1561 1561 1561
1491 1494 1496 1498 1500 1503 1508 1511 1515 1519 1522 1525 1528 1530 1533 1535 1538 1540 1542 1544 1545 1545 1546 1547 1548 1548 1549 1550 1551 1552 1553 1554 1555 1555 1556 1557 1557 1558 1559 1560 1560 1560 1560
1489 1491 1494 1496 1499 1503 1506 1509 1513 1517 1520 1523 1526 1529 1532 1534 1537 1539 1541 1543 1544 1545 1546 1546 1547 1547 1548 1549 1550 1551 1552 1553 1554 1555 1555 1556 1556 1557 1558 1558 1559 1560 1560
1487 1490 1492 1496 1498 1501 1504 1507 1510 1514 1517 1521 1524 1527 1530 1532 1535 1537 1539 1541 1543 1544 1545 1546 1546 1547 1548 1549 1550 1550 1552 1553 1554 1554 1555 1556 1556 1556 1557 1557 1558 1558 1559
1485 1488 1491 1494 1496 1499 1501 1504 1508 1511 1514 1518 1521 1524 1527 1530 1532 1534 1537 1539 1541 1542 1543 1544 1545 1546 1547 1548 1549 1549 1550 1552 1553 1554 1554 1555 1556 1556 1557 1557 1557 1557 1557
1484 1486 1488 1491 1493 1496 1498 1501 1505 1508 1512 1515 1518 1522 1525 1527 1530 1532 1535 1537 1539 1540 1542 1543 1544 1545 1546 1547 1548 1548 1549 1550 1551 1552 1553 1554 1555 1555 1555 1556 1556 1556 1556
1481 1483 1486 1488 1491 1493 1495 1498 1502 1506 1509 1512 1516 1519 1522 1524 1527 1530 1532 1535 1537 1539 1540 1541 1543 1544 1544 1545 1546 1547 1548 1549 1550 1551 1552 1553 1553 1554 1554 1554 1555 1555 1555
1479 1481 1484 1486 1489 1491 1494 1497 1500 1503 1507 1510 1514 1517 1520 1523 1526 1528 1531 1533 1535 1537 1538 1540 1541 1542 1543 1544 1545 1546 1546 1547 1548 1549 1550 1551 1552 1552 1553 1553 1553 1553 1553
1477 1479 1482 1484 1487 1490 1493 1496 1499 1502 1505 1508 1511 1515 1518 1521 1524 1526 1529 1531 1533 1534 1536 1537 1538 1539 1541 1542 1542 1543 1544 1545 1546 1547 1548 1549 1550 1550 1551 1551 1551 1551 1551
1475 1477 1480 1483 1485 1488 1491 1493 1496 1500 1503 1506 1509 1513 1516 1519 1521 1524 1526 1528 1530 1531 1533 1534 1536 1537 1538 1539 1540 1541 1542 1543 1544 1545 1545 1546 1547 1548 1548 1548 1548 1548 1548
1475 1477 1479 1482 1484 1486 1489 1491 1494 1497 1500 1504 1507 1510 1513 1516 1518 1521 1523 1525 1527 1528 1530 1531 1532 1534 1535 1536 1537 1538 1539 1540 1541 1542 1543 1544 1544 1545 1545 1546 1545 1545 1545
1475 1476 1478 1480 1483 1485 1487 1490 1493 1496 1499 1502 1505 1507 1510 1513 1515 1518 1520 1522 1524 1525 1527 1528 1529 1530 1532 1533 1534 1535 1536 1537 1538 1539 1540 1540 1541 1541 1542 1542 1542 1542 1542
1475 1476 1478 1480 1482 1484 1486 1489 1491 1495 1498 1500 1503 1505 1508 1510 1513 1515 1517 1518 1520 1521 1523 1524 1525 1527 1528 1529 1530 1531 1532 1533 1534 1535 1536 1537 1537 1538 1538 1538 1538 1538 1537
1474 1476 1478 1480 1482 1484 1486 1488 1490 1493 1496 1498 1500 1502 1505 1507 1509 1510 1513 1514 1515 1517 1518 1519 1520 1522 1523 1524 1526 1527 1528 1529 1530 1530 1531 1532 1533 1533 1533 1533 1533 1533 1532
1474 1476 1477 1479 1481 1483 1485 1487 1489 1491 1493 1495 1497 1499 1502 1503 1505 1506 1508 1509 1510 1511 1512 1514 1515 1517 1518 1520 1521 1522 1523 1524 1524 1525 1526 1527 1527 1528 1527 1527 1527 1526 1526
1474 1477 1478 1479 1481 1483 1485 1487 1489 1490 1492 1493 1494 1496 1497 1499 1501 1502 1503 1504 1505 1506 1507 1509 1511 1512 1513 1515 1516 1517 1518 1519 1520 1520 1520 1520 1521 1521 1521 1520 1519 1518 1518
1477 1478 1480 1481 1482 1484 1486 1488 1489 1490 1492 1493 1494 1495 1495 1497 1498 1499 1499 1499 1500 1501 1502 1504 1507 1508 1509 1510 1512 1512 1513 1513 1514 1514 1514 1514 1514 1514 1513 1513 1511 1510 1509
1480 1481 1482 1483 1484 1486 1487 1488 1489 1491 1492 1493 1494 1494 1495 1496 1497 1497 1497 1497 1497 1497 1499 1501 1503 1504 1505 1506 1507 1507 1508 1508 1508 1508 1508 1507 1507 1506 1506 1505 1503 1502 1501
1484 1484 1485 1485 1487 1488 1489 1490 1491 1492 1494 1494 1495 1495 1495 1496 1496 1497 1496 1496 1496 1496 1498 1499 1500 1501 1502 1502 1503 1502 1502 1502 1502 1501 1501 1501 1500 1499 1498 1497 1496 1494 1492
1486 1487 1487 1488 1491 1492 1491 1491 1493 1495 1496 1496 1496 1496 1496 1496 1496 1496 1496 1496 1496 1497 1498 1498 1499 1499 1499 1499 1499 1498 1497 1497 1497 1496 1495 1494 1493 1492 1491 1490 1488 1487 1485
1490 1491 1491 1492 1494 1495 1495 1494 1496 1498 1498 1498 1497 1498 1497 1497 1497 1497 1497 1497 1498 1498 1498 1498 1497 1497 1497 1497 1496 1495 1494 1493 1493 1491 1490 1489 1487 1486 1484 1483 1481 1479 1477
1493 1494 1495 1495 1497 1499 1499 1499 1500 1500 1500 1500 1500 1499 1499 1498 1498 1498 1498 1497 1497 1497 1497 1497 1496 1496 1495 1494 1493 1492 1491 1490 1488 1487 1485 1483 1482 1480 1478 1477 1475 1472 1470
1496 1497 1498 1499 1501 1502 1502 1503 1503 1503 1502 1502 1502 1501 1501 1500 1499 1499 1498 1498 1497 1497 1496 1495 1495 1493 1492 1491 1490 1489 1487 1486 1484 1482 1480 1478 1477 1475 1473 1471 1469 1467 1464
1500 1501 1502 1503 1504 1505 1505 1506 1506 1505 1504 1503 1503 1502 1502 1501 1500 1499 1498 1497 1497 1495 1494 1494 1493 1491 1491 1489 1488 1486 1484 1482 1480 1478 1475 1474 1472 1470 1467 1465 1463 1460 1458